Powrót do katalogu

STARLINK-37621

AktywnyŁącznośćVLEO
NORAD 69830·PAYLOAD·🇺🇸 United States

Wystrzelony Jul 5, 2026 z Cape Canaveral Space Force Station

Loading…

Następne Przeloty (najbliższe 24 godziny)

TLE

ŚwieżeSource: CelesTrak SupGP

Epoka: Sep 14, 2026, 15:46 UTC

1 69830C 26154M   26257.65743056 -.00004652  00000+0 -13750-3 0  2576
2 69830  53.1600 359.0921 0001211  64.8069 182.4080 15.34382384    15

Śledź STARLINK-37621 w czasie rzeczywistym z AllMySat

Download on the App Store